This is the latest recevied weather packets stored in our database for station/object YO6KXQ-11. If no packets are shown the sender has not sent any weather packets the latest 10 day(s).
| Time | Temp. | Humidity | Pressure | Rain* | Wind** | Luminosity | Snow |
|---|---|---|---|---|---|---|---|
| 1777646485 | 13.33° C | 41% | 1026.6 hPa | - | - | - | - |
| 1777645585 | 13.33° C | 41% | 1026.6 hPa | - | - | - | - |
| 1777644684 | 13.33° C | 42% | 1026.7 hPa | - | - | - | - |
| 1777643784 | 13.33° C | 41% | 1026.7 hPa | - | - | - | - |
| 1777642884 | 13.33° C | 41% | 1026.8 hPa | - | - | - | - |
| 1777641984 | 12.78° C | 42% | 1027 hPa | - | - | - | - |
| 1777641084 | 12.78° C | 42% | 1026.8 hPa | - | - | - | - |
| 1777640184 | 12.78° C | 41% | 1027 hPa | - | - | - | - |
| 1777639283 | 12.78° C | 41% | 1027.1 hPa | - | - | - | - |
| 1777638383 | 12.78° C | 42% | 1027.4 hPa | - | - | - | - |
| 1777637483 | 12.78° C | 42% | 1027.5 hPa | - | - | - | - |
| 1777636583 | 12.22° C | 43% | 1027.6 hPa | - | - | - | - |
| 1777635683 | 12.22° C | 42% | 1027.8 hPa | - | - | - | - |
| 1777634783 | 12.22° C | 42% | 1027.9 hPa | - | - | - | - |
| 1777633882 | 12.78° C | 41% | 1027.9 hPa | - | - | - | - |
| 1777632982 | 12.22° C | 42% | 1028 hPa | - | - | - | - |
| 1777632082 | 12.22° C | 43% | 1028.2 hPa | - | - | - | - |
| 1777631182 | 12.22° C | 43% | 1028.3 hPa | - | - | - | - |
| 1777630282 | 11.67° C | 40% | 1028.3 hPa | - | - | - | - |
| 1777629381 | 11.67° C | 44% | 1028.5 hPa | - | - | - | - |
| 1777628481 | 11.67° C | 42% | 1028.7 hPa | - | - | - | - |
| 1777627581 | 11.67° C | 44% | 1028.8 hPa | - | - | - | - |
| 1777626680 | 11.67° C | 43% | 1028.7 hPa | - | - | - | - |
| 1777625780 | 11.67° C | 45% | 1028.9 hPa | - | - | - | - |
| 1777624888 | 11.11° C | 46% | 1028.9 hPa | - | - | - | - |
* Rain since midnight (hover to see other rain measurements)
** Current wind speed in m/s (hover to see current wind gust speed)